This is the latest recevied weather packets stored in our database for station/object XE2RCS-21. If no packets are shown the sender has not sent any weather packets the latest 10 day(s).
| Time | Temp. | Humidity | Pressure | Rain* | Wind** | Luminosity | Snow |
|---|---|---|---|---|---|---|---|
| 1778151643 | 20.56° C | 100% | 1004.3 hPa | - | - | - | - |
| 1778149843 | 20.56° C | 100% | 1005.2 hPa | - | - | - | - |
| 1778148043 | 21.67° C | 100% | 1002.5 hPa | - | - | - | - |
| 1778146245 | 21.11° C | 100% | 1002.2 hPa | - | - | - | - |
| 1778144444 | 20.56° C | 100% | 1004.8 hPa | - | - | - | - |
| 1778142644 | 21.11° C | 100% | 1007 hPa | - | - | - | - |
| 1778140844 | 23.33° C | 100% | 1013 hPa | - | - | - | - |
| 1778139044 | 22.22° C | 100% | 1013.2 hPa | - | - | - | - |
| 1778137244 | 22.22° C | 100% | 1012.4 hPa | - | - | - | - |
| 1778135444 | 22.22° C | 100% | 1013.5 hPa | - | - | - | - |
| 1778133643 | 23.33° C | 100% | 1017.9 hPa | - | - | - | - |
| 1778131843 | 24.44° C | 100% | 1018.9 hPa | - | - | - | - |
| 1778130043 | 25° C | 100% | 1019.4 hPa | - | - | - | - |
| 1778128243 | 26.11° C | 100% | 1019.7 hPa | - | - | - | - |
| 1778126443 | 27.78° C | 86% | 1019.9 hPa | - | - | - | - |
| 1778124643 | 28.33° C | 46% | 1019.4 hPa | - | - | - | - |
| 1778122843 | 28.33° C | 92% | 1018.8 hPa | - | - | - | - |
| 1778121043 | 28.89° C | 82% | 1018.4 hPa | - | - | - | - |
| 1778119243 | 27.78° C | 100% | 1017.7 hPa | - | - | - | - |
| 1778117443 | 29.44° C | 52% | 1017.5 hPa | - | - | - | - |
| 1778115642 | 32.22° C | 35% | 1017.3 hPa | - | - | - | - |
| 1778113842 | 33.33° C | 23% | 1017 hPa | - | - | - | - |
| 1778112042 | 36.11° C | 19% | 1017 hPa | - | - | - | - |
| 1778110242 | 37.78° C | 14% | 1016.9 hPa | - | - | - | - |
| 1778108442 | 38.89° C | 12% | 1016.9 hPa | - | - | - | - |
* Rain since midnight (hover to see other rain measurements)
** Current wind speed in m/s (hover to see current wind gust speed)